Time,TemperatureF,DewpointF,PressureIn,WindDirection,WindDirectionDegrees,WindSpeedMPH,WindSpeedGustMPH,Humidity,HourlyPrecipIn,Conditions,Clouds,dailyrainin,SolarRadiationWatts/m^2,SoftwareType,DateUTC
2013-04-12 00:02:00,62.0,8.0,29.89,WNW,292,9.0,14.0,11,-99.99,,,-99.99,0.000000,,2013-04-12 06:02:00,
2013-04-12 00:12:00,62.0,8.0,29.89,WNW,292,9.0,14.0,11,-99.99,,,-99.99,0.000000,,2013-04-12 06:12:00,
2013-04-12 00:22:00,62.0,8.0,29.89,WNW,292,9.0,14.0,11,-99.99,,,-99.99,0.000000,,2013-04-12 06:22:00,
2013-04-12 00:32:00,61.0,8.0,29.90,NNW,339,6.0,10.0,12,-99.99,,,-99.99,0.000000,,2013-04-12 06:32:00,
2013-04-12 00:42:00,61.0,9.0,29.90,NW,317,6.0,11.0,12,-99.99,,,-99.99,0.000000,,2013-04-12 06:42:00,
2013-04-12 00:52:00,61.0,9.0,29.90,NW,317,6.0,11.0,12,-99.99,,,-99.99,0.000000,,2013-04-12 06:52:00,
2013-04-12 01:01:00,62.0,9.0,29.91,NW,310,8.0,12.0,11,-99.99,,,-99.99,0.000000,,2013-04-12 07:01:00,
2013-04-12 01:11:00,63.0,9.0,29.91,NW,312,10.0,15.0,11,-99.99,,,-99.99,0.000000,,2013-04-12 07:11:00,
2013-04-12 01:22:00,63.0,9.0,29.91,NW,312,10.0,15.0,11,-99.99,,,-99.99,0.000000,,2013-04-12 07:22:00,
2013-04-12 01:32:00,63.0,9.0,29.91,NW,316,11.0,17.0,11,-99.99,,,-99.99,0.000000,,2013-04-12 07:32:00,
2013-04-12 01:42:00,62.0,9.0,29.91,NW,318,10.0,13.0,12,-99.99,,,-99.99,0.000000,,2013-04-12 07:42:00,
2013-04-12 01:52:00,62.0,9.0,29.91,NW,318,10.0,13.0,12,-99.99,,,-99.99,0.000000,,2013-04-12 07:52:00,
2013-04-12 02:03:00,61.0,9.0,29.91,NW,322,8.0,12.0,12,-99.99,,,-99.99,0.000000,,2013-04-12 08:03:00,
2013-04-12 02:12:00,61.0,9.0,29.91,NW,320,8.0,12.0,12,-99.99,,,-99.99,0.000000,,2013-04-12 08:12:00,
2013-04-12 02:22:00,61.0,9.0,29.91,NW,320,8.0,12.0,12,-99.99,,,-99.99,0.000000,,2013-04-12 08:22:00,
2013-04-12 02:32:00,61.0,10.0,29.91,NW,318,8.0,12.0,13,-99.99,,,-99.99,0.000000,,2013-04-12 08:32:00,
2013-04-12 02:42:00,59.0,10.0,29.92,North,354,9.0,13.0,14,-99.99,,,-99.99,0.000000,,2013-04-12 08:42:00,
2013-04-12 02:52:00,59.0,10.0,29.92,North,354,9.0,13.0,14,-99.99,,,-99.99,0.000000,,2013-04-12 08:52:00,
2013-04-12 03:02:00,59.0,10.0,29.91,NNW,345,10.0,13.0,14,-99.99,,,-99.99,0.000000,,2013-04-12 09:02:00,
2013-04-12 03:12:00,58.0,10.0,29.91,NNW,333,11.0,15.0,14,-99.99,,,-99.99,0.000000,,2013-04-12 09:12:00,
2013-04-12 03:22:00,58.0,10.0,29.91,NNW,333,11.0,15.0,14,-99.99,,,-99.99,0.000000,,2013-04-12 09:22:00,
2013-04-12 03:33:00,58.0,10.0,29.91,North,353,7.0,12.0,14,-99.99,,,-99.99,0.000000,,2013-04-12 09:33:00,
2013-04-12 03:43:00,58.0,10.0,29.91,North,4,6.0,10.0,14,-99.99,,,-99.99,0.000000,,2013-04-12 09:43:00,
2013-04-12 03:53:00,58.0,10.0,29.91,North,4,6.0,10.0,14,-99.99,,,-99.99,0.000000,,2013-04-12 09:53:00,
2013-04-12 04:03:00,56.0,11.0,29.91,NW,318,5.0,9.0,16,-99.99,,,-99.99,0.000000,,2013-04-12 10:03:00,
2013-04-12 04:12:00,57.0,11.0,29.91,North,351,4.0,7.0,15,-99.99,,,-99.99,0.000000,,2013-04-12 10:12:00,
2013-04-12 04:23:00,57.0,11.0,29.91,North,351,4.0,7.0,15,-99.99,,,-99.99,0.000000,,2013-04-12 10:23:00,
2013-04-12 04:34:00,56.0,11.0,29.92,NNW,343,5.0,9.0,16,-99.99,,,-99.99,0.000000,,2013-04-12 10:34:00,
2013-04-12 04:42:00,55.0,11.0,29.92,NW,320,6.0,8.0,17,-99.99,,,-99.99,0.000000,,2013-04-12 10:42:00,
2013-04-12 04:53:00,55.0,11.0,29.92,NW,320,6.0,8.0,17,-99.99,,,-99.99,0.000000,,2013-04-12 10:53:00,
2013-04-12 05:02:00,55.0,12.0,29.93,NNW,338,6.0,9.0,18,-99.99,,,-99.99,0.000000,,2013-04-12 11:02:00,
2013-04-12 05:13:00,53.0,14.0,29.93,NW,325,7.0,9.0,20,-99.99,,,-99.99,0.000000,,2013-04-12 11:13:00,
2013-04-12 05:22:00,53.0,14.0,29.93,NW,325,7.0,9.0,20,-99.99,,,-99.99,0.000000,,2013-04-12 11:22:00,
2013-04-12 05:32:00,56.0,17.0,29.93,NNW,345,7.0,9.0,21,-99.99,,,-99.99,0.000000,,2013-04-12 11:32:00,
2013-04-12 05:42:00,55.0,19.0,29.93,NNW,333,5.0,8.0,24,-99.99,,,-99.99,0.000000,,2013-04-12 11:42:00,
2013-04-12 05:52:00,55.0,19.0,29.93,NNW,333,5.0,8.0,24,-99.99,,,-99.99,0.000000,,2013-04-12 11:52:00,
2013-04-12 06:02:00,55.0,22.0,29.94,NNW,346,5.0,9.0,28,-99.99,,,-99.99,0.000000,,2013-04-12 12:02:00,
2013-04-12 06:13:00,55.0,22.0,29.94,NW,324,3.0,5.0,27,-99.99,,,-99.99,0.000000,,2013-04-12 12:13:00,
2013-04-12 06:22:00,55.0,22.0,29.94,NW,324,3.0,5.0,27,-99.99,,,-99.99,0.000000,,2013-04-12 12:22:00,
2013-04-12 06:42:00,54.0,22.0,29.94,NNW,340,4.0,7.0,27,-99.99,,,-99.99,0.000000,,2013-04-12 12:42:00,
2013-04-12 06:53:00,54.0,22.0,29.94,NNW,340,4.0,7.0,27,-99.99,,,-99.99,0.000000,,2013-04-12 12:53:00,
2013-04-12 07:03:00,55.0,24.0,29.95,NNW,331,7.0,9.0,30,-99.99,,,-99.99,0.000000,,2013-04-12 13:03:00,
2013-04-12 07:12:00,54.0,25.0,29.95,NNW,333,7.0,9.0,32,-99.99,,,-99.99,2.090000,,2013-04-12 13:12:00,
2013-04-12 07:22:00,54.0,25.0,29.95,NNW,333,7.0,9.0,32,-99.99,,,-99.99,2.090000,,2013-04-12 13:22:00,
2013-04-12 07:32:00,54.0,26.0,29.96,NNW,338,6.0,10.0,32,-99.99,,,-99.99,9.070000,,2013-04-12 13:32:00,
2013-04-12 07:42:00,54.0,26.0,29.96,NNW,338,6.0,10.0,32,-99.99,,,-99.99,9.070000,,2013-04-12 13:42:00,
2013-04-12 07:53:00,54.0,26.0,29.96,NNW,338,6.0,10.0,32,-99.99,,,-99.99,9.070000,,2013-04-12 13:53:00,
2013-04-12 08:03:00,55.0,26.0,29.97,North,354,4.0,6.0,31,-99.99,,,-99.99,68.339996,,2013-04-12 14:03:00,
2013-04-12 08:13:00,58.0,27.0,29.98,NNW,340,3.0,7.0,29,-99.99,,,-99.99,158.990005,,2013-04-12 14:13:00,
2013-04-12 08:22:00,58.0,27.0,29.98,NNW,340,3.0,7.0,29,-99.99,,,-99.99,158.990005,,2013-04-12 14:22:00,
2013-04-12 08:32:00,59.0,27.0,29.98,NW,310,3.0,5.0,28,-99.99,,,-99.99,216.169998,,2013-04-12 14:32:00,
2013-04-12 08:42:00,59.0,27.0,29.98,SW,231,2.0,4.0,28,-99.99,,,-99.99,115.059998,,2013-04-12 14:42:00,
2013-04-12 08:53:00,59.0,27.0,29.98,SW,231,2.0,4.0,28,-99.99,,,-99.99,115.059998,,2013-04-12 14:53:00,
2013-04-12 09:02:00,60.0,26.0,29.98,SSW,195,4.0,9.0,27,-99.99,,,-99.99,262.200012,,2013-04-12 15:02:00,
2013-04-12 09:12:00,61.0,26.0,29.99,South,172,4.0,11.0,26,-99.99,,,-99.99,333.329987,,2013-04-12 15:12:00,
2013-04-12 09:22:00,61.0,26.0,29.99,South,172,4.0,11.0,26,-99.99,,,-99.99,333.329987,,2013-04-12 15:22:00,
2013-04-12 09:33:00,60.0,26.0,29.99,SSE,166,4.0,10.0,26,-99.99,,,-99.99,271.260010,,2013-04-12 15:33:00,
2013-04-12 09:43:00,60.0,25.0,29.99,SE,145,5.0,8.0,26,-99.99,,,-99.99,241.970001,,2013-04-12 15:43:00,
2013-04-12 09:53:00,60.0,25.0,29.99,SE,145,5.0,8.0,26,-99.99,,,-99.99,241.970001,,2013-04-12 15:53:00,
2013-04-12 10:03:00,59.0,24.0,29.99,SE,142,5.0,8.0,25,-99.99,,,-99.99,271.260010,,2013-04-12 16:03:00,
2013-04-12 10:13:00,60.0,23.0,29.99,SSE,163,3.0,6.0,24,-99.99,,,-99.99,495.799988,,2013-04-12 16:13:00,
2013-04-12 10:23:00,60.0,23.0,29.99,SSE,163,3.0,6.0,24,-99.99,,,-99.99,495.799988,,2013-04-12 16:23:00,
2013-04-12 10:33:00,61.0,24.0,29.99,SE,144,4.0,8.0,24,-99.99,,,-99.99,635.270020,,2013-04-12 16:33:00,
2013-04-12 10:42:00,61.0,24.0,29.99,SE,137,4.0,9.0,23,-99.99,,,-99.99,679.200012,,2013-04-12 16:42:00,
2013-04-12 10:53:00,61.0,24.0,29.99,SE,137,4.0,9.0,23,-99.99,,,-99.99,679.200012,,2013-04-12 16:53:00,
2013-04-12 11:03:00,62.0,25.0,29.99,ESE,109,5.0,10.0,24,-99.99,,,-99.99,737.780029,,2013-04-12 17:03:00,
2013-04-12 11:12:00,63.0,25.0,29.99,ESE,118,6.0,19.0,24,-99.99,,,-99.99,731.500000,,2013-04-12 17:12:00,
2013-04-12 11:23:00,63.0,25.0,29.99,ESE,118,6.0,19.0,24,-99.99,,,-99.99,731.500000,,2013-04-12 17:23:00,
2013-04-12 11:33:00,63.0,26.0,29.99,ESE,117,7.0,12.0,23,-99.99,,,-99.99,836.799988,,2013-04-12 17:33:00,
2013-04-12 11:44:00,64.0,26.0,29.99,SE,135,5.0,11.0,22,-99.99,,,-99.99,610.859985,,2013-04-12 17:44:00,
2013-04-12 12:09:00,65.0,25.0,29.99,SE,137,5.0,11.0,21,-99.99,,,-99.99,704.309998,,2013-04-12 18:09:00,
2013-04-12 12:18:00,65.0,25.0,29.98,SE,143,6.0,14.0,21,-99.99,,,-99.99,633.179993,,2013-04-12 18:18:00,
2013-04-12 13:26:00,65.0,23.0,29.98,SE,140,7.0,14.0,20,-99.99,,,-99.99,428.160004,,2013-04-12 19:26:00,
2013-04-12 13:27:00,66.0,23.0,29.97,South,170,7.0,14.0,19,-99.99,,,-99.99,850.750000,,2013-04-12 19:27:00,
2013-04-12 13:32:00,67.0,22.0,29.96,SE,126,7.0,13.0,18,-99.99,,,-99.99,751.030029,,2013-04-12 19:32:00,
2013-04-12 13:43:00,67.0,22.0,29.95,ESE,114,7.0,11.0,18,-99.99,,,-99.99,617.840027,,2013-04-12 19:43:00,
2013-04-12 13:53:00,67.0,22.0,29.95,ESE,114,7.0,11.0,18,-99.99,,,-99.99,617.840027,,2013-04-12 19:53:00,
2013-04-12 14:02:00,67.0,20.0,29.95,SE,144,5.0,12.0,16,-99.99,,,-99.99,403.760010,,2013-04-12 20:02:00,
2013-04-12 14:12:00,67.0,20.0,29.95,South,177,7.0,12.0,16,-99.99,,,-99.99,285.209991,,2013-04-12 20:12:00,
2013-04-12 14:22:00,67.0,20.0,29.95,South,177,7.0,12.0,16,-99.99,,,-99.99,285.209991,,2013-04-12 20:22:00,
2013-04-12 14:32:00,67.0,20.0,29.95,SE,144,7.0,12.0,16,-99.99,,,-99.99,241.970001,,2013-04-12 20:32:00,
2013-04-12 14:42:00,67.0,20.0,29.95,SE,144,7.0,12.0,16,-99.99,,,-99.99,241.970001,,2013-04-12 20:42:00,
2013-04-12 14:52:00,67.0,20.0,29.95,SE,144,7.0,12.0,16,-99.99,,,-99.99,241.970001,,2013-04-12 20:52:00,
2013-04-12 15:02:00,67.0,19.0,29.94,South,170,5.0,12.0,15,-99.99,,,-99.99,337.510010,,2013-04-12 21:02:00,
2013-04-12 15:12:00,68.0,18.0,29.93,SSE,164,2.0,8.0,14,-99.99,,,-99.99,461.630005,,2013-04-12 21:12:00,
2013-04-12 15:22:00,68.0,18.0,29.93,SSE,164,2.0,8.0,14,-99.99,,,-99.99,461.630005,,2013-04-12 21:22:00,
2013-04-12 15:33:00,68.0,17.0,29.93,South,181,6.0,18.0,14,-99.99,,,-99.99,485.339996,,2013-04-12 21:33:00,
2013-04-12 15:43:00,68.0,17.0,29.92,South,176,5.0,11.0,14,-99.99,,,-99.99,405.850006,,2013-04-12 21:43:00,
2013-04-12 15:53:00,68.0,17.0,29.92,South,176,5.0,11.0,14,-99.99,,,-99.99,405.850006,,2013-04-12 21:53:00,
2013-04-12 16:02:00,68.0,17.0,29.92,South,176,3.0,11.0,13,-99.99,,,-99.99,396.089996,,2013-04-12 22:02:00,
2013-04-12 16:13:00,69.0,14.0,29.92,WNW,292,9.0,15.0,11,-99.99,,,-99.99,505.570007,,2013-04-12 22:13:00,
2013-04-12 16:22:00,69.0,14.0,29.92,WNW,292,9.0,15.0,11,-99.99,,,-99.99,505.570007,,2013-04-12 22:22:00,
2013-04-12 16:32:00,68.0,14.0,29.92,WNW,294,8.0,15.0,11,-99.99,,,-99.99,359.130005,,2013-04-12 22:32:00,
2013-04-12 16:42:00,68.0,13.0,29.91,NW,309,8.0,15.0,11,-99.99,,,-99.99,341.690002,,2013-04-12 22:42:00,
2013-04-12 16:52:00,68.0,13.0,29.91,NW,309,8.0,15.0,11,-99.99,,,-99.99,341.690002,,2013-04-12 22:52:00,
2013-04-12 17:03:00,68.0,13.0,29.91,NNW,330,8.0,14.0,11,-99.99,,,-99.99,298.459991,,2013-04-12 23:03:00,
2013-04-12 17:12:00,69.0,14.0,29.91,WNW,287,9.0,16.0,11,-99.99,,,-99.99,338.899994,,2013-04-12 23:12:00,
2013-04-12 17:22:00,69.0,14.0,29.91,WNW,287,9.0,16.0,11,-99.99,,,-99.99,338.899994,,2013-04-12 23:22:00,
2013-04-12 17:32:00,69.0,13.0,29.90,WNW,300,7.0,14.0,11,-99.99,,,-99.99,272.660004,,2013-04-12 23:32:00,
2013-04-12 17:42:00,69.0,13.0,29.90,NW,326,3.0,13.0,11,-99.99,,,-99.99,462.329987,,2013-04-12 23:42:00,
2013-04-12 17:52:00,69.0,13.0,29.90,NW,326,3.0,13.0,11,-99.99,,,-99.99,462.329987,,2013-04-12 23:52:00,
2013-04-12 18:02:00,70.0,14.0,29.90,NNW,327,6.0,19.0,11,-99.99,,,-99.99,513.239990,,2013-04-13 00:02:00,
2013-04-12 18:12:00,69.0,13.0,29.89,NE,53,3.0,7.0,11,-99.99,,,-99.99,263.589996,,2013-04-13 00:12:00,
2013-04-12 18:22:00,69.0,13.0,29.89,NE,53,3.0,7.0,11,-99.99,,,-99.99,263.589996,,2013-04-13 00:22:00,
2013-04-12 18:32:00,69.0,13.0,29.90,NW,309,5.0,9.0,11,-99.99,,,-99.99,194.559998,,2013-04-13 00:32:00,
2013-04-12 18:42:00,69.0,13.0,29.90,NW,306,5.0,9.0,11,-99.99,,,-99.99,124.129997,,2013-04-13 00:42:00,
2013-04-12 18:52:00,69.0,13.0,29.90,NW,306,5.0,9.0,11,-99.99,,,-99.99,124.129997,,2013-04-13 00:52:00,
2013-04-12 19:02:00,68.0,13.0,29.90,NNW,330,4.0,7.0,11,-99.99,,,-99.99,89.959999,,2013-04-13 01:02:00,
2013-04-12 19:12:00,68.0,13.0,29.90,NW,325,6.0,8.0,11,-99.99,,,-99.99,73.919998,,2013-04-13 01:12:00,
2013-04-12 19:22:00,68.0,13.0,29.90,NW,325,6.0,8.0,11,-99.99,,,-99.99,73.919998,,2013-04-13 01:22:00,
2013-04-12 19:32:00,68.0,14.0,29.90,NW,323,5.0,8.0,12,-99.99,,,-99.99,68.339996,,2013-04-13 01:32:00,
2013-04-12 19:42:00,68.0,14.0,29.90,NNW,345,4.0,5.0,12,-99.99,,,-99.99,40.450001,,2013-04-13 01:42:00,
2013-04-12 19:52:00,68.0,14.0,29.90,NNW,345,4.0,5.0,12,-99.99,,,-99.99,40.450001,,2013-04-13 01:52:00,
2013-04-12 20:02:00,67.0,14.0,29.90,NNW,330,2.0,4.0,12,-99.99,,,-99.99,18.129999,,2013-04-13 02:02:00,
2013-04-12 20:12:00,66.0,14.0,29.91,NNW,345,2.0,3.0,12,-99.99,,,-99.99,2.090000,,2013-04-13 02:12:00,
2013-04-12 20:22:00,66.0,14.0,29.91,NNW,345,2.0,3.0,12,-99.99,,,-99.99,2.090000,,2013-04-13 02:22:00,
2013-04-12 20:32:00,64.0,13.0,29.91,NNW,344,3.0,6.0,13,-99.99,,,-99.99,0.000000,,2013-04-13 02:32:00,
2013-04-12 20:42:00,62.0,13.0,29.92,NNW,335,5.0,7.0,14,-99.99,,,-99.99,0.000000,,2013-04-13 02:42:00,
2013-04-12 20:53:00,62.0,13.0,29.92,NNW,335,5.0,7.0,14,-99.99,,,-99.99,0.000000,,2013-04-13 02:53:00,
2013-04-12 21:02:00,61.0,13.0,29.92,NW,322,6.0,9.0,14,-99.99,,,-99.99,0.000000,,2013-04-13 03:02:00,
2013-04-12 21:12:00,60.0,13.0,29.92,NW,317,8.0,9.0,15,-99.99,,,-99.99,0.000000,,2013-04-13 03:12:00,
2013-04-12 21:23:00,60.0,13.0,29.92,NW,317,8.0,9.0,15,-99.99,,,-99.99,0.000000,,2013-04-13 03:23:00,
2013-04-12 21:33:00,60.0,13.0,29.92,NW,323,8.0,10.0,15,-99.99,,,-99.99,0.000000,,2013-04-13 03:33:00,
2013-04-12 21:42:00,61.0,13.0,29.92,NNW,330,9.0,11.0,15,-99.99,,,-99.99,0.000000,,2013-04-13 03:42:00,
2013-04-12 21:53:00,61.0,13.0,29.92,NNW,330,9.0,11.0,15,-99.99,,,-99.99,0.000000,,2013-04-13 03:53:00,
2013-04-12 22:03:00,62.0,13.0,29.92,NNW,328,8.0,11.0,14,-99.99,,,-99.99,0.000000,,2013-04-13 04:03:00,
2013-04-12 22:12:00,61.0,13.0,29.93,NW,324,7.0,9.0,15,-99.99,,,-99.99,0.000000,,2013-04-13 04:12:00,
2013-04-12 22:23:00,61.0,13.0,29.93,NW,324,7.0,9.0,15,-99.99,,,-99.99,0.000000,,2013-04-13 04:23:00,
2013-04-12 22:33:00,60.0,14.0,29.93,NW,323,5.0,7.0,15,-99.99,,,-99.99,0.000000,,2013-04-13 04:33:00,
2013-04-12 22:42:00,60.0,14.0,29.94,NW,321,6.0,9.0,15,-99.99,,,-99.99,0.000000,,2013-04-13 04:42:00,
2013-04-12 22:53:00,60.0,14.0,29.94,NW,321,6.0,9.0,15,-99.99,,,-99.99,0.000000,,2013-04-13 04:53:00,
2013-04-12 23:02:00,60.0,14.0,29.94,NW,313,8.0,10.0,16,-99.99,,,-99.99,0.000000,,2013-04-13 05:02:00,
2013-04-12 23:12:00,59.0,14.0,29.94,WNW,303,6.0,9.0,16,-99.99,,,-99.99,0.000000,,2013-04-13 05:12:00,
2013-04-12 23:22:00,59.0,14.0,29.94,WNW,303,6.0,9.0,16,-99.99,,,-99.99,0.000000,,2013-04-13 05:22:00,
2013-04-12 23:32:00,60.0,14.0,29.94,WNW,298,5.0,7.0,16,-99.99,,,-99.99,0.000000,,2013-04-13 05:32:00,
2013-04-12 23:42:00,60.0,14.0,29.94,WNW,298,5.0,7.0,16,-99.99,,,-99.99,0.000000,,2013-04-13 05:42:00,
2013-04-12 23:52:00,60.0,14.0,29.94,WNW,298,5.0,7.0,16,-99.99,,,-99.99,0.000000,,2013-04-13 05:52:00,